Terug naar catalogus

FENGYUN 1C DEB

ActiefSSO
NORAD 30608·DEBRIS·🇨🇳 China

Gelanceerd May 10, 1999 vanaf Taiyuan Satellite Launch Center

Loading…

Volgende Passages (komende 24 uur)

TLE

VersSource: Space-Track

Epoch: Sep 14, 2026, 10:22 UTC

1 30608U 99025AMP 26257.43238520  .00000772  00000-0  31830-3 0  9995
2 30608  98.6819 324.3715 0014751  89.1030 335.8083 14.29615674 13766

Volg FENGYUN 1C DEB in realtime met AllMySat

Download on the App Store